www.pogodaiklimat.ru

Погода и климат >> Архив погоды >> Россия >> Оренбургская область >> Айдырля


ПОГОДА в Айдырля

  • Прогноз погоды в Айдырля
  • Монитор погоды в Айдырля

АРХИВ ПОГОДЫ в Айдырля

Время (UTC), дата Ветер
(напр.,м/с)
 
Видим.   Явления Облачность Т
(С)
Тd
(С)
f
(%)
Тe
(С)
Тes
(С)
Комфортность P
(гПа)
Po
(гПа)
Тmin
(С)
Tmax
(С)
R
(мм)
R24
(мм)
S
(см)
21 8.09 СЗ 3 10 км 4/4 600 м
[Sc]
+9.1 +7.1 87 +7 +7 1022.6 982.8
00 9.09 С 3 10 км ясно +5.6 +4.6 93 +2 +2 1023.6 983.3
03 9.09 С 3 20 км 6/4 1000 м
[Sc Ci fib]
+8.5 +5.6 82 +6 +6 1024.4 984.4 +3.6
06 9.09 С 5 20 км 6/5 600 м
[Cu med, cong Ci fib]
+14.0 +5.8 58 +12 +14 1023.6 984.4
09 9.09 С 4 20 км 8/4 600 м
[Cu med, cong Ci fib]
+16.8 +4.9 45 +16 +20 1022.9 984.1
12 9.09 С 4 20 км 4/0
[Ac trans Ci fib]
+18.0 +3.9 39 +18 +19 1022.4 983.7
15 9.09 СЗ 2 20 км 3/0
[Ac lent]
+11.9 +5.1 63 +11 +11 1023.9 984.4 +18.4
18 9.09 СЗ 1 10 км 5/0
[Ac trans Cs]
+7.3 +4.4 82 +6 +6 1025.3 985.1
21 9.09 СЗ 1 10 км 6/0
[Ac trans Cs]
+7.1 +4.6 84 +6 +6 1025.5 985.3
00 10.09 СЗ 1 10 км 6/0
[Ac trans Cs]
+5.0 +3.7 91 +4 +4 1026.3 985.7
03 10.09 штиль 0 10 км 10/0
[Ac As]
+6.9 +5.3 90 +6 +6 1026.8 986.5 +4.4
06 10.09 С 1 20 км 10/0
[Ac As]
+15.9 +7.8 59 +17 +19 1026.1 987.1
09 10.09 С 2 4000 м слаб. дождь 10/10 800 м
[Frnb Ns]
+14.5 +9.5 72 +14 +14 1026.7 987.5
12 10.09 СЗ 2 20 км в посл. час ливневой дождь 8/8 870 м
[Cb calv Ac trans]
+15.8 +9.3 65 +16 +16 1026.9 987.8
15 10.09 штиль 0 20 км 8/5 600 м
[Sc Ac lent]
+12.0 +9.8 86 +11 +11 1028.1 988.5 +17.2 0.4
18 10.09 С 1 4000 м дымка 5/0
[Ac trans]
+7.2 +6.6 96 +6 +6 1029.4 989.0
21 10.09 штиль 0 4000 м дымка 10/0
[As op]
+5.9 +5.6 98 +5 +5 1030.4 989.8
00 11.09 СЗ 1 4000 м дымка 10/0
[As op]
+6.9 +6.7 99 +6 +6 1031.4 991.0
03 11.09 штиль 0 2000 м дымка 3/0
[Ac trans]
+6.1 +6.0 99 +5 +6 1032.8 992.1 +4.1
06 11.09 С 2 20 км 1/1 600 м
[Cu hum]
+16.1 +7.2 56 +16 +23 1032.1 992.9
09 11.09 С 1 20 км 5/4 1000 м
[Cu med, cong Ci fib]
+18.3 +6.1 45 +20 +26 1031.6 992.7
12 11.09 З 2 20 км 1/0
[Ac lent]
+19.7 +3.1 33 +21 +23 комфорт 1031.1 992.3
15 11.09 З 2 20 км 1/0
[Ac lent]
+13.0 +4.0 54 +12 +12 1032.1 992.4 +20.1
18 11.09 штиль 0 10 км 1/0
[Ci fib]
+6.8 +3.8 81 +6 +6 1033.6 993.0
21 11.09 штиль 0 10 км ясно +4.7 +2.9 88 +4 +4 1033.6 992.7
00 12.09 С 1 10 км ясно +2.5 +1.4 92 +1 +1 1033.8 992.6
03 12.09 штиль 0 10 км 1/0
[Ci fib]
+6.1 +4.2 88 +5 +6 1033.2 992.5 +1.5
06 12.09 З 4 20 км ясно +18.5 +4.8 40 +19 +23 1030.7 991.8
09 12.09 СЗ 4 20 км ясно +21.1 +3.7 32 +21 +27 комфорт 1028.6 990.1
12 12.09 З 3 20 км 3/0
[Ci fib]
+21.7 +2.8 29 +22 +24 комфорт 1026.6 988.3
15 12.09 СЗ 1 20 км 3/0
[Ci fib]
+14.8 +3.2 46 +16 +16 1027.0 987.8 +22.1
18 12.09 штиль 0 10 км ясно +7.0 +3.2 77 +6 +6 1028.2 987.9
21 12.09 штиль 0 10 км ясно +5.1 +2.6 84 +4 +4 1028.0 987.3
00 13.09 штиль 0 10 км ясно +3.6 +1.8 88 +3 +3 1028.0 987.1
03 13.09 штиль 0 20 км ясно +7.2 +3.3 76 +6 +7 1027.4 987.1 +2.4
06 13.09 Ю 1 20 км 1/0
[Ci fib]
+20.2 +7.9 45 +22 +30 комфорт 1025.1 986.7
09 13.09 З 2 20 км 3/1 600 м
[Cu hum Ci fib]
+22.0 +5.5 34 +22 +30 комфорт 1024.0 985.8
12 13.09 З 2 20 км 8/1 600 м
[Cu hum Ci fib]
+22.8 +4.8 31 +23 +25 комфорт 1022.4 984.4
15 13.09 З 3 20 км 3/0
[Ci fib]
+15.1 +3.9 47 +15 +15 1023.0 984.0 +23.0
18 13.09 штиль 0 10 км 3/0
[Ci fib]
+8.8 +4.0 72 +8 +8 1023.5 983.6
21 13.09 штиль 0 10 км 8/0
[Ac lent Ci fib]
+6.6 +3.2 79 +6 +6 1023.3 983.1
00 14.09 Ю 2 10 км 6/0
[Ac lent Ci fib]
+6.6 +2.9 77 +4 +4 1022.8 982.6
03 14.09 штиль 0 20 км 3/0
[Ci fib]
+10.4 +4.3 66 +10 +11 1022.2 982.5 +4.1
06 14.09 З 3 20 км ясно +19.2 +6.8 44 +20 +26 1020.7 982.3
09 14.09 ЮЗ 3 20 км 1/1 600 м
[Cu hum]
+23.0 +4.0 29 +23 +29 комфорт 1019.0 981.1
12 14.09 ЮЗ 4 20 км 1/1 600 м
[Cu hum]
+23.3 +2.5 26 +23 +24 комфорт 1018.0 980.2
15 14.09 ЮЗ 3 20 км 1/0
[Ac lent]
+16.5 +3.1 41 +16 +16 1018.7 980.0 +23.9
18 14.09 Ю 1 10 км ясно +11.8 +3.5 57 +12 +12 1019.0 979.7
21 14.09 ЮВ 1 10 км ясно +7.3 +3.0 74 +7 +7 1019.2 979.2
00 15.09 ЮВ 1 10 км ясно +5.6 +2.4 80 +5 +5 1019.4 979.2
03 15.09 ЮВ 1 10 км ясно +8.7 +4.3 74 +8 +9 1019.1 979.3 +4.8
06 15.09 З 4 20 км 1/1 1000 м
[Cu hum]
+22.0 +4.5 32 +22 +26 комфорт 1017.1 979.2
09 15.09 ЮЗ 5 20 км 3/3 1000 м
[Cu med, cong]
+24.5 +1.4 22 +23 +26 комфорт 1015.6 978.0
12 15.09 ЮЗ 5
{10}
20 км 6/4 600 м
[Cb calv Ac trans]
+23.2 -0.3 21 +22 +23 комфорт 1014.4 976.7
15 15.09 Ю 5 10 км 8/6 870 м
[Sc Ac trans]
+16.3 +0.3 34 +15 +15 1014.4 975.8 +25.3
18 15.09 Ю 5 10 км 8/4 600 м
[Sc Ac trans]
+13.8 +1.2 42 +12 +12 1013.9 975.0

 

Местоположение метеостанции Айдырля (Оренбургская область, Россия): широта 51.95 долгота 59.88 высота над уровнем моря 329 м.

В архиве по умолчанию представлена погода в Айдырля за последнюю неделю. Архивные данные за месяц целиком и за предыдущие месяцы, начиная с января 2011 года, Вы можете получить, выбрав интересующий диапазон дат из раскрывающегося списка и нажав кнопку "Ввод!".


*Определитесь, кто Вы:
робот инопланетянин человек

Внимание! Время в таблицах - всемирное. Для получения местного времени необходимо прибавить поправку, которая равна 5 ч.

Смотрите также архив погоды в соседних городах и на ближайших метеорологических станциях:

Погода в Бредах (Челябинская область, Россия) (62 км)
Погода в Энергетике (Оренбургская область, Россия) (75 км)
Погода в Житикаре (Костанайская область, Казахстан) (106 км)
Погода в Кизильском (Челябинская область, Россия) (109 км)
Погода в Зерносовхозе Озерном (Оренбургская область, Россия) (117 км)
Погода в Акъяре (Башкирия, Россия) (117 км)
Погода в Аршалынском (Акмолинская область, Казахстан) (124 км)
Погода в Орске (Оренбургская область, Россия) (132 км)
Погода в Карталы (Челябинская область, Россия) (134 км)
Погода в Домбаровском (Оренбургская область, Россия) (135 км)

Пояснения к столбцам:

Ветер - указаны скорость ветра в м/с - средняя за 10 мин, порывы в срок и между сроками (в фигурных скобках) и направление, откуда дует ветер: С - северный, СВ - северо-восточный, В - восточный, ЮВ - юго-восточный, Ю - южный, ЮЗ - юго-западный, З - западный, СЗ - северо-западный.
Видимость - горизонтальная дальность видимости в метрах или километрах. При видимости от 1 до 10 км при отсутствии осадков обычно наблюдается дымка, при ухудшении видимости до 1 км и менее - туман. В сухую погоду видимость может ухудшаться дымом, пылью или мглою.
Явления - указаны атмосферные явления, наблюдавшиеся в срок или в последний час перед сроком; фигурными скобками обозначены явления, наблюдавшиеся между сроками (за 1-3 часа до срока); квадратными скобками обозначены град или гололедные отложения с указанием их диаметра в мм.
Облачность - указаны через наклонную черту общая и нижняя облачность в баллах и высота нижней границы облаков в метрах; квадратными скобками обозначены формы облаков: Ci - перистые, Cs - перисто-слоистые, Cc - перисто-кучевые, Ac - высококучевые, As - высокослоистые, Sc - слоисто-кучевые, Ns - слоисто-дождевые, Cu - кучевые, Cb - кучево-дождевые. Подробнее классификацию облаков см. в Атласе облаков (PDF).
T - Температура воздуха - температура, измеренная на высоте 2 м над землей.
Td - Температура точки росы - температура, при понижении до которой содержащийся в воздухе водяной пар достигнет насыщения.
f - Относительная влажность воздуха - влажноcть воздуха, измеренная на высоте 2 м над землей.
Te - Эффективная температура - температура, которую ощущает одетый по сезону человек в тени. Характеристика душности погоды. При расчете учитывается влияние влажности воздуха и скорости ветра на теплоощущения человека.
Tes - Эффективная температура на солнце - температура, которую ощущает человек, с поправкой на солнечный нагрев. Характеристика знойности погоды. Зависит от высоты солнца над горизонтом, облачности и скорости ветра. Ночью, в пасмурную погоду, а также при ветре 12 м/с и более поправка равна нулю.
P - Атмосферное давление - приведенное к уровню моря атмосферное давление.
Po - Атмосферное давление - измеренное на уровне метеостанции атмосферное давление.
Tmin - Минимальная температура - минимум температуры воздуха на высоте 2 м над землей.
Tmax - Максимальная температура - максимум температуры воздуха на высоте 2 м над землей.
R - Количество осадков - Количество выпавших осадков за период времени, мм. При наведении курсора мыши на число - период времени, за который выпало указанное количество осадков.
R24 - Количество осадков - Количество выпавших осадков за 24 часа, мм.
S - Снежный покров - Высота снежного покрова, см. При наведении курсора мыши на число - состояние снежного покрова и степень покрытия местности в баллах.